Location: Bogis-Bossey
(46.3500°N, 6.1667°E)
Time: 00:25:02
(UTC+00:00)

NOSS 3-1 (C) - Visible Passes

Search period start: 03 February 2023 00:00
Search period end: 13 February 2023 00:00
Orbit: 690 x 1518 km, 63.4° (Epoch: 08 January)

Date Brightness Start Highest point End Pass type
(mag) Time Alt. Az. Time Alt. Az. Time Alt. Az.
03 Feb 4.3 03:40:10 39° NE 03:40:10 39° NE 03:44:04 10° NE visible
03 Feb 4.5 05:27:33 20° WNW 05:29:45 25° NNW 05:35:06 10° NNE visible
04 Feb 5.3 02:56:14 22° NE 02:56:14 22° NE 02:58:26 10° NE visible
04 Feb 4.1 04:43:37 32° NW 04:43:49 32° NNW 04:49:32 10° NNE visible
05 Feb 6.1 02:12:16 12° NE 02:12:16 12° NE 02:12:40 10° NE visible
05 Feb 4.3 03:59:39 36° N 03:59:39 36° N 04:04:03 10° NNE visible
05 Feb 5.0 05:47:02 12° NW 05:50:39 20° NNW 05:55:28 10° NNE visible
06 Feb 5.0 03:15:39 27° NNE 03:15:39 27° NNE 03:18:33 10° NE visible
06 Feb 4.7 05:03:02 21° NW 05:04:32 23° NNW 05:09:39 10° NNE visible
07 Feb 5.7 02:31:37 17° NE 02:31:37 17° NE 02:33:00 10° NE visible
07 Feb 4.5 04:19:00 28° NNW 04:19:00 28° NNW 04:24:02 10° NNE visible
07 Feb 5.3 06:07:31 10° NW 06:11:43 18° N 06:16:26 10° NE visible
08 Feb 4.8 03:34:57 28° N 03:34:57 28° N 03:38:32 10° NNE visible
08 Feb 5.1 05:22:19 13° NW 05:25:30 19° N 05:30:12 10° NE visible
09 Feb 5.4 02:50:51 21° NNE 02:50:51 21° NNE 02:53:02 10° NE visible
09 Feb 4.9 04:38:14 20° NNW 04:39:20 21° NNW 04:44:16 10° NNE visible
10 Feb 6.0 02:06:45 14° NE 02:06:45 14° NE 02:07:32 10° NE visible
10 Feb 4.9 03:54:08 24° N 03:54:08 24° N 03:58:34 10° NNE visible
10 Feb 5.4 05:42:17 10° NW 05:46:35 18° N 05:51:26 10° NE visible
11 Feb 5.2 03:10:01 23° N 03:10:01 23° N 03:13:00 10° NNE visible
11 Feb 5.2 04:57:23 14° NW 05:00:21 18° N 05:05:02 10° NE visible
12 Feb 5.7 02:25:52 17° NNE 02:25:52 17° NNE 02:27:30 10° NNE visible
12 Feb 5.1 04:13:15 19° NNW 04:14:09 19° N 04:18:57 10° NNE visible
12 Feb 5.5 06:02:41 10° NNW 06:07:38 21° NNE 06:13:17 10° ENE visible
